Location: Br�ttisellen
(47.4227°N, 8.6287°E)
Time: 07:48:03
(UTC+00:00)

Cosmos 1408 - Pass Details

Date: 09 April 2020
Orbit: 470 x 494 km, 82.6° (Epoch: 02 June)

Event Time Altitude Azimuth Distance (km) Brightness Sun altitude
Rises 20:41:41 0° 350° (N) 2,565 7.1 -23.6°
Reaches altitude 10° 20:43:47 10° 350° (N) 1,683 6.0 -23.9°
Enters shadow 20:46:40 53° 345° (NNW) 612 3.2 -24.2°
